Regional Weather Roundup
Issued by NWS

Home | Current Version | Previous Version | Graphics & Text | Print | Product List | Glossary On
Versions: 1 2 3 4 5 6 7 8 9 10 11 12 13 14 15 16 17 18 19 20 21 22 23 24 25 26 27 28 29 30 31 32 33 34 35 36 37 38 39 40 41 42 43 44 45 46 47 48 49 50
000
ASUS43 KLMK 062302
RWRKY
KENTUCKY REGIONAL WEATHER ROUNDUP
NATIONAL WEATHER SERVICE LOUISVILLE KY
600 PM EST FRI MAR 06 2015

NOTE "FAIR" INDICATES FEW OR NO CLOUDS BELOW 12,000 FEET
WITH NO SIGNIFICANT WEATHER AND/OR OBSTRUCTIONS TO VISIBILITY.

KYZ001>023-026-027-061>063-070>075-070000-
WESTERN AND SOUTH CENTRAL KENTUCKY

CITY           SKY/WX    TMP DP  RH WIND       PRES   REMARKS
PADUCAH        CLEAR     29  10  45 SW8       30.44F WCI  21
HENDERSON      CLEAR     30   9  40 S9        30.42F WCI  22
OWENSBORO      CLEAR     28  13  53 S10       30.43F WCI  19
HOPKINSVILLE   CLEAR     28  15  60 E2        30.44F
BOWLING GREEN  CLEAR     28  10  46 SW8       30.47F WCI  20
GLASGOW        NOT AVBL
$$

KYZ024-025-028>034-038-045-046-053-070000-
NORTH CENTRAL KENTUCKY

CITY           SKY/WX    TMP DP  RH WIND       PRES   REMARKS
LOUISVILLE/SDF CLEAR     31  12  45 SW10      30.42F WCI  22
LOUISVILLE/LOU CLEAR     30  14  51 S8        30.43S WCI  22
FORT KNOX      CLEAR     27  13  54 S10       30.40F WCI  17
$$

KYZ035>037-039>044-047>052-055>060-089>105-070000-
NORTHEAST KENTUCKY

CITY           SKY/WX    TMP DP  RH WIND       PRES   REMARKS
LEXINGTON      CLEAR     24  12  60 S8        30.41F WCI  15
COVINGTON      PTCLDY    27   8  44 SW13      30.38F WCI  16
FRANKFORT      CLEAR     27  11  51 S7        30.41F WCI  19
$$

KYZ054-064>069-076>088-106>120-070000-
SOUTHEAST KENTUCKY

CITY           SKY/WX    TMP DP  RH WIND       PRES   REMARKS
JACKSON        CLEAR     30  10  43 VRB3      30.38F
LONDON         CLEAR     32  11  41 CALM      30.40F
SOMERSET       NOT AVBL
MIDDLESBORO    CLEAR     35  13  40 NW3       30.41S
MONTICELLO     CLEAR     32  13  45 CALM      30.46F
$$




USA.gov is the U.S. government's official web portal to all federal, state and local government web resources and services.